Baudette, MN

2:03 PM CST on February 25, 2017 (GMT -0600)
Baudette International

Weather History for KBDE - February, 2013

Change the Weather History Date:

Monday, February 11, 2013

  Actual Average Record
Temperature  
Mean Temperature 12 °F -  
Max Temperature 21 °F 19 °F 44 °F (1977)
Min Temperature 3 °F -7 °F -37 °F (1981)
Degree Days  
Heating Degree Days 53    
Moisture  
Dew Point 12 °F    
Average Humidity 84    
Maximum Humidity 93    
Minimum Humidity 68    
Precipitation  
Precipitation 0.00 in - - ()
Sea Level Pressure  
Sea Level Pressure 29.79 in    
Wind  
Wind Speed 13 mph (NW)    
Max Wind Speed 20 mph    
Max Gust Speed 26 mph    
Visibility 6 miles    
Events Snow    
Averages and records for this station are not official NWS values.
T = Trace of Precipitation, MM = Missing Value Source: NWS Daily Summary

Daily Weather History Graph

Daily Weather History Graph

Search for Another Location

Airport or City:

Trip Planner

Search our weather history database for the weather conditions in past years. The results will help you decide how hot, cold, wet, or windy it might be!

Date:

Astronomy

Feb. 11, 2013 Rise Set
Actual Time 7:32 AM CST 5:33 PM CST
Civil Twilight 6:59 AM CST 6:06 PM CST
Nautical Twilight 6:22 AM CST 6:43 PM CST
Astronomical Twilight 5:46 AM CST 7:19 PM CST
Moon 7:45 AM CST (2/11) 7:46 PM CST (2/11)
Length of Visible Light 11h 06m
Length of Day
10h 00m
Waxing Crescent, 3% of the Moon is Illuminated
Feb 11
Waxing Crescent
Feb 17
First Quarter
Feb 25
Full
Mar 4
Last Quarter
Mar 11
New

Hourly Weather History & Observations

Time (CST) Temp. Windchill Dew Point Humidity Pressure Visibility Wind Dir Wind Speed Gust Speed Precip Events Conditions
12:04 AM 21.2 °F 6.4 °F 19.4 °F 93% 29.62 in 1.5 mi North 18.4 mph 26.5 mph N/A   Overcast
12:34 AM 21.2 °F 6.0 °F 19.4 °F 93% 29.62 in 2.5 mi North 19.6 mph 25.3 mph N/A   Overcast
12:53 AM 21.0 °F 6.6 °F 18.0 °F 88% 29.68 in 2.0 mi North 17.3 mph 26.5 mph N/A   Overcast
1:23 AM 21.2 °F 7.3 °F 17.6 °F 86% 29.62 in 1.8 mi North 16.1 mph - N/A   Overcast
1:53 AM 21.0 °F 7.6 °F 18.0 °F 88% 29.69 in 1.2 mi North 15.0 mph 26.5 mph N/A   Overcast
2:04 AM 21.2 °F 8.3 °F 17.6 °F 86% 29.64 in 1.0 mi North 13.8 mph 23.0 mph N/A   Mist
2:12 AM 21.2 °F 7.8 °F 17.6 °F 86% 29.64 in 1.2 mi North 15.0 mph 21.9 mph N/A   Overcast
2:26 AM 19.4 °F 6.6 °F 17.6 °F 93% 29.64 in 1.2 mi North 12.7 mph - 0.00 in Snow Light Snow
2:41 AM 19.4 °F 7.2 °F 17.6 °F 93% 29.64 in 1.8 mi NNW 11.5 mph - 0.00 in Snow Light Snow
2:53 AM 19.9 °F 7.9 °F 18.0 °F 92% 29.70 in 2.5 mi North 11.5 mph - 0.00 in Snow Light Snow
3:53 AM 19.9 °F 6.7 °F 17.1 °F 89% 29.71 in 1.8 mi NNW 13.8 mph - 0.00 in Snow Light Snow
3:56 AM 19.4 °F 5.5 °F 17.6 °F 93% 29.66 in 2.0 mi NNW 15.0 mph - 0.00 in Snow Light Snow
4:53 AM 19.9 °F 6.7 °F 17.1 °F 89% 29.73 in 2.5 mi NNW 13.8 mph - 0.00 in Snow Light Snow
5:02 AM 19.4 °F 5.5 °F 17.6 °F 93% 29.68 in 3.0 mi NNW 15.0 mph - 0.00 in Snow Light Snow
5:30 AM 19.4 °F 4.5 °F 17.6 °F 93% 29.69 in 2.5 mi NNW 17.3 mph 24.2 mph 0.00 in Snow Light Snow
5:40 AM 19.4 °F 5.5 °F 17.6 °F 93% 29.69 in 4.0 mi NNW 15.0 mph - 0.00 in Snow Light Snow
5:53 AM 19.9 °F 5.2 °F 16.0 °F 85% 29.75 in 6.0 mi NNW 17.3 mph - 0.00 in Snow Light Snow
6:53 AM 19.0 °F 5.6 °F 15.1 °F 85% 29.78 in 10.0 mi NNW 13.8 mph 23.0 mph 0.00 in   Overcast
7:53 AM 18.0 °F 3.6 °F 14.0 °F 84% 29.80 in 9.0 mi NNW 15.0 mph 23.0 mph 0.00 in   Overcast
8:53 AM 17.1 °F 3.6 °F 12.9 °F 84% 29.82 in 9.0 mi NNW 12.7 mph - 0.00 in   Mostly Cloudy
9:07 AM 17.6 °F 3.2 °F 12.2 °F 79% 29.76 in 10.0 mi NNW 15.0 mph - 0.00 in   Scattered Clouds
9:43 AM 17.6 °F 3.7 °F 12.2 °F 79% 29.77 in 10.0 mi NNW 13.8 mph 24.2 mph 0.00 in   Mostly Cloudy
9:53 AM 17.1 °F 3.0 °F 12.0 °F 81% 29.84 in 10.0 mi NNW 13.8 mph 25.3 mph 0.00 in   Mostly Cloudy
10:29 AM 15.8 °F 2.1 °F 10.4 °F 79% 29.79 in 10.0 mi NNW 12.7 mph - 0.00 in   Scattered Clouds
10:53 AM 17.1 °F 3.0 °F 10.9 °F 77% 29.86 in 10.0 mi North 13.8 mph - 0.00 in   Scattered Clouds
11:07 AM 17.6 °F 2.2 °F 10.4 °F 73% 29.81 in 10.0 mi North 17.3 mph - N/A   Mostly Cloudy
11:19 AM 17.6 °F 3.7 °F 12.2 °F 79% 29.81 in 10.0 mi NNW 13.8 mph - N/A   Scattered Clouds
11:53 AM 19.0 °F 5.6 °F 12.0 °F 74% 29.88 in 10.0 mi NNW 13.8 mph 24.2 mph N/A   Scattered Clouds
12:53 PM 21.0 °F 6.2 °F 14.0 °F 74% 29.88 in 10.0 mi NNW 18.4 mph 26.5 mph 0.00 in   Overcast
1:53 PM 21.0 °F 9.3 °F 15.1 °F 78% 29.89 in 10.0 mi NW 11.5 mph - 0.00 in   Overcast
2:53 PM 21.0 °F 9.3 °F 14.0 °F 74% 29.89 in 10.0 mi NNW 11.5 mph - N/A   Clear
3:53 PM 21.0 °F 12.4 °F 12.9 °F 71% 29.91 in 10.0 mi NW 6.9 mph - N/A   Clear
4:53 PM 21.9 °F - 12.9 °F 68% 29.91 in 10.0 mi Calm Calm - N/A   Overcast
5:53 PM 21.0 °F - 12.9 °F 71% 29.92 in 10.0 mi Calm Calm - N/A   Overcast
6:53 PM 17.1 °F 8.7 °F 10.0 °F 74% 29.94 in 10.0 mi WSW 5.8 mph - N/A   Overcast
7:53 PM 14.0 °F 6.5 °F 9.0 °F 80% 29.95 in 10.0 mi West 4.6 mph - N/A   Clear
8:53 PM 10.9 °F - 7.0 °F 84% 29.95 in 10.0 mi Calm Calm - N/A   Clear
9:53 PM 7.0 °F -1.7 °F 5.0 °F 92% 29.96 in 10.0 mi WSW 4.6 mph - N/A   Clear
10:29 PM 5.0 °F -4.1 °F 1.4 °F 85% 29.87 in 2.5 mi SW 4.6 mph - N/A   Clear
10:36 PM 5.0 °F -5.6 °F 3.2 °F 92% 29.87 in 7.0 mi SW 5.8 mph - N/A   Clear
10:49 PM 3.2 °F -4.2 °F 1.4 °F 92% 29.86 in 1.8 mi SSW 3.5 mph - N/A   Clear
10:53 PM 3.0 °F -8.0 °F 1.0 °F 91% 29.95 in 1.0 mi SSW 5.8 mph - N/A   Clear
11:01 PM 3.2 °F -6.2 °F -0.4 °F 85% 29.86 in 1.5 mi SSW 4.6 mph - N/A   Partly Cloudy
11:04 PM 3.2 °F -6.2 °F -0.4 °F 85% 29.86 in 3.0 mi SSW 4.6 mph - N/A   Scattered Clouds
11:15 PM 5.0 °F -4.1 °F 1.4 °F 85% 29.86 in 10.0 mi SSW 4.6 mph - N/A   Mostly Cloudy
11:53 PM 9.0 °F -2.2 °F 7.0 °F 92% 29.91 in 10.0 mi SSW 6.9 mph - N/A   Overcast